• în România
  • Lista ţărilor
  • Pe 7 zile
  • Temperatura apei
  • Hartă satelitară
  • Meteo pe hartă
  • Widget-uri
  • user-avatar
    Intrare

    Meteo pe oră la Sarafovo

    Astăzi, 20 Octombrie, Vineri

    Timp Temperatura Precipitaţii Vânt Presiune Umiditate
    00:00 +18°C° 0 mm 1 m/s 759 mmHg 66%
    01:00 +18°C° 0 mm 1 m/s 759 mmHg 66%
    02:00 +16°C° 0 mm 1 m/s 759 mmHg 65%
    03:00 +16°C° 0 mm 1 m/s 759 mmHg 64%
    04:00 +16°C° 0 mm 1 m/s 759 mmHg 63%
    05:00 +16°C° 0 mm 1 m/s 759 mmHg 62%
    06:00 +16°C° 0 mm 1 m/s 760 mmHg 59%
    07:00 +18°C° 0 mm 1 m/s 760 mmHg 57%
    08:00 +19°C° 0 mm 1 m/s 760 mmHg 51%
    09:00 +21°C° 0 mm 1 m/s 760 mmHg 45%
    10:00 +24°C° 0 mm 1 m/s 760 mmHg 39%
    11:00 +26°C° 0 mm 1 m/s 760 mmHg 33%
    12:00 +27°C° 0 mm 1 m/s 760 mmHg 31%
    13:00 +27°C° 0 mm 1 m/s 760 mmHg 29%
    14:00 +28°C° 0 mm 1 m/s 759 mmHg 27%
    15:00 +27°C° 0 mm 1 m/s 759 mmHg 30%
    16:00 +26°C° 0 mm 2 m/s 759 mmHg 34%
    17:00 +24°C° 0 mm 2 m/s 759 mmHg 37%
    18:00 +23°C° 0 mm 2 m/s 759 mmHg 40%
    19:00 +22°C° 0 mm 1 m/s 760 mmHg 43%
    20:00 +20°C° 0 mm 1 m/s 760 mmHg 45%
    21:00 +20°C° 0 mm 1 m/s 760 mmHg 46%
    22:00 +20°C° 0 mm 1 m/s 760 mmHg 47%
    23:00 +19°C° 0 mm 1 m/s 760 mmHg 48%

    Mâine, 21 Octombrie, Sâmbătă

    Timp Temperatura Precipitaţii Vânt Presiune Umiditate
    00:00 +19°C° 0 mm 1 m/s 760 mmHg 49%
    01:00 +19°C° 0 mm 1 m/s 760 mmHg 50%
    02:00 +18°C° 0 mm 1 m/s 760 mmHg 51%
    03:00 +18°C° 0 mm 1 m/s 760 mmHg 51%
    04:00 +18°C° 0 mm 1 m/s 759 mmHg 52%
    05:00 +16°C° 0 mm 1 m/s 759 mmHg 53%
    06:00 +18°C° 0 mm 1 m/s 759 mmHg 52%
    07:00 +19°C° 0 mm 1 m/s 760 mmHg 50%
    08:00 +18°C° 0 mm 2 m/s 760 mmHg 49%
    09:00 +22°C° 0 mm 1 m/s 760 mmHg 43%
    10:00 +24°C° 0 mm 1 m/s 760 mmHg 37%
    11:00 +26°C° 0 mm 1 m/s 760 mmHg 31%
    12:00 +27°C° 0 mm 1 m/s 759 mmHg 29%
    13:00 +27°C° 0 mm 1 m/s 759 mmHg 27%
    14:00 +28°C° 0 mm 1 m/s 758 mmHg 26%
    15:00 +27°C° 0 mm 2 m/s 758 mmHg 29%
    16:00 +25°C° 0 mm 2 m/s 758 mmHg 33%
    17:00 +24°C° 0 mm 2 m/s 758 mmHg 36%
    18:00 +23°C° 0 mm 2 m/s 758 mmHg 39%
    19:00 +21°C° 0 mm 2 m/s 758 mmHg 41%
    20:00 +19°C° 0 mm 2 m/s 758 mmHg 43%
    21:00 +19°C° 0 mm 2 m/s 758 mmHg 44%
    22:00 +19°C° 0 mm 2 m/s 758 mmHg 45%
    23:00 +18°C° 0 mm 2 m/s 758 mmHg 46%

    Poimâine, 22 Octombrie, Duminică

    Timp Temperatura Precipitaţii Vânt Presiune Umiditate
    00:00 +18°C° 0 mm 2 m/s 757 mmHg 47%
    01:00 +18°C° 0 mm 2 m/s 757 mmHg 47%
    02:00 +17°C° 0 mm 2 m/s 757 mmHg 48%
    03:00 +17°C° 0 mm 2 m/s 757 mmHg 50%
    04:00 +17°C° 0 mm 2 m/s 757 mmHg 51%
    05:00 +16°C° 0 mm 2 m/s 757 mmHg 53%
    06:00 +17°C° 0 mm 3 m/s 757 mmHg 53%
    07:00 +17°C° 0 mm 3 m/s 757 mmHg 53%
    08:00 +18°C° 0 mm 3 m/s 757 mmHg 53%
    09:00 +19°C° 0 mm 3 m/s 758 mmHg 49%
    10:00 +21°C° 0 mm 3 m/s 758 mmHg 45%
    11:00 +22°C° 0 mm 4 m/s 758 mmHg 41%
    12:00 +23°C° 0 mm 4 m/s 758 mmHg 40%
    13:00 +24°C° 0 mm 3 m/s 758 mmHg 39%
    14:00 +25°C° 0 mm 3 m/s 757 mmHg 38%
    15:00 +22°C° 0 mm 3 m/s 757 mmHg 43%
    16:00 +21°C° 0 mm 3 m/s 757 mmHg 49%
    17:00 +20°C° 0 mm 4 m/s 757 mmHg 55%
    18:00 +18°C° 0 mm 3 m/s 758 mmHg 62%
    19:00 +17°C° 0 mm 3 m/s 758 mmHg 70%
    20:00 +16°C° 0 mm 3 m/s 758 mmHg 77%
    21:00 +16°C° 0 mm 3 m/s 758 mmHg 80%
    22:00 +14°C° 0 mm 3 m/s 758 mmHg 83%
    23:00 +14°C° 0 mm 3 m/s 758 mmHg 85%

    23 Octombrie, Luni

    Timp Temperatura Precipitaţii Vânt Presiune Umiditate
    00:00 +14°C° 0 mm 3 m/s 758 mmHg 87%
    01:00 +14°C° 0 mm 3 m/s 758 mmHg 89%
    02:00 +13°C° 0 mm 3 m/s 758 mmHg 91%
    03:00 +13°C° 0 mm 3 m/s 757 mmHg 92%
    04:00 +13°C° 0 mm 4 m/s 757 mmHg 93%
    05:00 +13°C° 0 mm 4 m/s 756 mmHg 94%
    06:00 +14°C° 0 mm 4 m/s 756 mmHg 91%
    07:00 +15°C° 0 mm 4 m/s 756 mmHg 88%
    08:00 +15°C° 0 mm 5 m/s 756 mmHg 85%
    09:00 +16°C° 0 mm 5 m/s 755 mmHg 80%
    10:00 +17°C° 0 mm 5 m/s 755 mmHg 74%
    11:00 +19°C° 0 mm 5 m/s 755 mmHg 69%
    12:00 +19°C° 0 mm 5 m/s 754 mmHg 68%
    13:00 +19°C° 0 mm 5 m/s 754 mmHg 67%
    14:00 +20°C° 0 mm 5 m/s 753 mmHg 67%
    15:00 +19°C° 0,1 mm 5 m/s 753 mmHg 71%
    16:00 +17°C° 0,1 mm 5 m/s 753 mmHg 76%
    17:00 +17°C° 0,1 mm 5 m/s 752 mmHg 80%
    18:00 +16°C° 0,1 mm 5 m/s 752 mmHg 83%
    19:00 +16°C° 0,1 mm 5 m/s 752 mmHg 86%
    20:00 +16°C° 0,1 mm 5 m/s 752 mmHg 89%
    21:00 +15°C° 0 mm 5 m/s 752 mmHg 90%
    22:00 +15°C° 0 mm 4 m/s 751 mmHg 91%
    23:00 +15°C° 0 mm 4 m/s 751 mmHg 92%

    24 Octombrie, Marţi

    Timp Temperatura Precipitaţii Vânt Presiune Umiditate
    00:00 +15°C° 0 mm 4 m/s 751 mmHg 92%
    01:00 +15°C° 0 mm 4 m/s 751 mmHg 92%
    02:00 +15°C° 0 mm 4 m/s 750 mmHg 92%
    03:00 +15°C° 0,1 mm 4 m/s 750 mmHg 92%
    04:00 +15°C° 0,1 mm 5 m/s 750 mmHg 93%
    05:00 +15°C° 0,1 mm 5 m/s 750 mmHg 93%
    06:00 +15°C° 0,2 mm 5 m/s 750 mmHg 90%
    07:00 +16°C° 0,2 mm 5 m/s 750 mmHg 88%
    08:00 +16°C° 0,2 mm 5 m/s 751 mmHg 85%
    09:00 +16°C° 0,9 mm 5 m/s 751 mmHg 84%
    10:00 +16°C° 0,9 mm 5 m/s 751 mmHg 82%
    11:00 +17°C° 0,9 mm 4 m/s 751 mmHg 81%
    12:00 +17°C° 0,4 mm 5 m/s 751 mmHg 77%
    13:00 +19°C° 0,4 mm 6 m/s 751 mmHg 72%
    14:00 +20°C° 0,4 mm 6 m/s 751 mmHg 68%
    15:00 +18°C° 0,2 mm 7 m/s 752 mmHg 73%
    16:00 +17°C° 0,2 mm 7 m/s 752 mmHg 78%
    17:00 +17°C° 0,2 mm 7 m/s 752 mmHg 83%
    18:00 +17°C° 0,5 mm 8 m/s 753 mmHg 85%
    19:00 +17°C° 0,5 mm 8 m/s 753 mmHg 87%
    20:00 +17°C° 0,5 mm 9 m/s 754 mmHg 89%
    21:00 +16°C° 0,2 mm 9 m/s 754 mmHg 88%
    22:00 +16°C° 0,2 mm 9 m/s 754 mmHg 87%
    23:00 +16°C° 0,2 mm 9 m/s 755 mmHg 86%

    25 Octombrie, Miercuri

    Timp Temperatura Precipitaţii Vânt Presiune Umiditate
    00:00 +16°C° 0,1 mm 9 m/s 755 mmHg 85%
    01:00 +15°C° 0,1 mm 9 m/s 755 mmHg 85%
    02:00 +15°C° 0,1 mm 9 m/s 755 mmHg 84%
    03:00 +13°C° 0,1 mm 9 m/s 756 mmHg 83%
    04:00 +13°C° 0,1 mm 10 m/s 756 mmHg 83%
    05:00 +12°C° 0,1 mm 10 m/s 756 mmHg 82%
    06:00 +12°C° 0,2 mm 10 m/s 756 mmHg 81%
    07:00 +11°C° 0,2 mm 10 m/s 757 mmHg 80%
    08:00 +11°C° 0,2 mm 10 m/s 757 mmHg 80%
    09:00 +9°C° 0,4 mm 11 m/s 757 mmHg 78%
    10:00 +8°C° 0,4 mm 11 m/s 758 mmHg 77%
    11:00 +7°C° 0,4 mm 12 m/s 758 mmHg 76%
    12:00 +7°C° 0,4 mm 11 m/s 758 mmHg 74%
    13:00 +7°C° 0,4 mm 11 m/s 758 mmHg 72%
    14:00 +7°C° 0,4 mm 11 m/s 758 mmHg 70%
    15:00 +7°C° 0,6 mm 11 m/s 759 mmHg 70%
    16:00 +7°C° 0,6 mm 11 m/s 759 mmHg 71%
    17:00 +6°C° 0,6 mm 10 m/s 759 mmHg 72%
    18:00 +6°C° 0,4 mm 10 m/s 760 mmHg 73%
    19:00 +6°C° 0,4 mm 10 m/s 760 mmHg 74%
    20:00 +4°C° 0,4 mm 11 m/s 761 mmHg 76%
    21:00 +5°C° 0,1 mm 10 m/s 761 mmHg 76%
    22:00 +3°C° 0,1 mm 10 m/s 761 mmHg 77%
    23:00 +3°C° 0,1 mm 10 m/s 762 mmHg 77%
    Arată mai mult